Regional Weather Roundup
Issued by NWS

Home | Current Version | Previous Version | Graphics & Text | Print | Product List | Glossary On
Versions: 1 2 3 4 5 6 7 8 9 10 11 12 13 14 15 16 17 18 19 20 21 22 23 24 25 26 27 28 29 30 31 32 33 34 35 36 37 38 39 40 41 42 43 44 45 46 47 48 49 50
000
ASUS43 KDMX 291703
RWRIA

WEATHER ROUNDUP FOR IOWA
NATIONAL WEATHER SERVICE DES MOINES IA
1200 PM CDT FRI JUL 29 2016

NOTE: "FAIR" INDICATES FEW OR NO CLOUDS BELOW 12,000 FEET WITH NO
SIGNIFICANT WEATHER AND/OR OBSTRUCTIONS TO VISIBILITY.

* - THESE STATIONS ARE NOT NWS STATIONS...THUS NOT UNDER NWS
QUALITY CONTROL.  THEY ALSO DO NOT REPORT WEATHER SUCH
AS PRECIPITATION OR FOG.

IAZ001>003-012>014-020>022-031>034-043>046-291800-
   NORTHWEST IOWA

CITY           SKY/WX    TMP DP  RH WIND       PRES   REMARKS
CARROLL *      CLOUDY    70  63  78 N14       30.04F
CHEROKEE *     CLOUDY    73  63  71 NE8       30.08S
DENISON *      PTSUNNY   73  64  73 N10G17    30.03F
LE MARS *      CLOUDY    75  59  57 VRB6G12   30.09F
SHELDON *      PTSUNNY   73  61  64 VRB6      30.08F
SIOUX CITY     MOSUNNY   79  59  50 NE9       30.08S HX  80
SPENCER        CLOUDY    73  60  63 N10       30.09S
STORM LAKE *     N/A     70  63  78 NE9       30.08F
$$

IAZ055>058-069>071-079>083-090>094-291800-
   SOUTHWEST IOWA

CITY           SKY/WX    TMP DP  RH WIND       PRES   REMARKS
ATLANTIC *     MOSUNNY   75  64  69 N13       30.04S
CLARINDA *       N/A     75  64  69 MISG      30.06F
COUNCIL BLFS * CLOUDY    73  63  68 N8        30.06S
CRESTON *      CLOUDY    72  63  73 N10G18    30.05R
HARLAN  *      SUNNY     73  64  73 N9        30.08F
LAMONI         CLOUDY    74  64  71 VRB6      30.03S
RED OAK *      CLOUDY    75  66  73 VRB6      30.05S
SHENANDOAH *   CLOUDY    73  64  73 N8        30.05S
$$

IAZ047>049-059>061-072>074-084-291800-
   CENTRAL IOWA

CITY           SKY/WX    TMP DP  RH WIND       PRES   REMARKS
AMES           CLOUDY    68  64  87 N12       30.01F
ANKENY *         N/A    N/A N/A N/A MISG        N/A
BOONE *        CLOUDY    68  63  83 N13       30.01F
CHARITON *       N/A    N/A N/A N/A MISG        N/A
DES MOINES     CLOUDY    70  63  78 NW7       30.01R
GRINNELL*      CLOUDY    68  64  85 NW8       30.01R
KNOXVILLE *    CLOUDY    70  63  78 NW7       29.99F
MARSHALLTOWN   CLOUDY    67  65  93 NW10      30.00S
NEWTON *       CLOUDY    68  66  94 NW8       30.00S
PELLA *        CLOUDY    70  64  79 NW7       30.01S
PERRY *        CLOUDY    68  65  89 N9        30.02F
$$

IAZ004>006-015-016-023>025-035-036-291800-
   NORTH CENTRAL IOWA

CITY           SKY/WX    TMP DP  RH WIND       PRES   REMARKS
ALGONA *       CLOUDY    70  63  78 NE10      30.07R
ESTHERVILLE    MOSUNNY   71  63  75 MISG      30.08S
FORT DODGE *   CLOUDY    66  63  88 N8        30.05F
MASON CITY     CLOUDY    66  61  84 N9        30.07R
FOREST CITY *  RAIN      64  61  88 NE9       30.06S
IOWA FALLS *   CLOUDY    66  63  89 N8        30.04R
$$

IAZ007>011-017>019-026>030-037>042-050>054-066-291800-
   NORTHEAST IOWA

CITY           SKY/WX    TMP DP  RH WIND       PRES   REMARKS
CEDAR RAPIDS   PTSUNNY   73  69  87 NE5       29.97R FOG
CHARLES CITY * CLOUDY    64  64 100 NE7       30.05R
CLINTON *      CLOUDY    73  69  87 N6        29.97R
DECORAH *      LGT RAIN  63  63 100 CALM      30.03S
DUBUQUE        CLOUDY    68  65  90 NE9       29.99F
MONTICELLO *   DRIZZLE   68  66  94 NE7       29.98S
OELWEIN *      CLOUDY    68  64  88 NE9       30.02R
WATERLOO       CLOUDY    69  64  84 NE9       29.99S
$$

IAZ064-065-067-068-078-291800-
   EAST CENTRAL IOWA

CITY           SKY/WX    TMP DP  RH WIND       PRES   REMARKS
DAVENPORT      CLOUDY    77  69  76 N6        29.96S
IOWA CITY      CLOUDY    73  67  81 W3        29.98R
MT. PLEASANT * CLOUDY    73  69  85 W7        29.98S
MUSCATINE *    CLOUDY    73  66  78 NW5       29.96S
QUAD CITIES    PTSUNNY   79  68  69 W7        29.94S HX  81
$$

IAZ062-063-075>077-085>089-095>099-291800-
   SOUTHEAST IOWA

CITY           SKY/WX    TMP DP  RH WIND       PRES   REMARKS
BURLINGTON     CLOUDY    71  66  84 W7        29.97S
FAIRFIELD *    CLOUDY    70  64  83 NW8       29.99S
KEOKUK *       CLOUDY    73  64  73 NW5G12    29.98S
OSKALOOSA *    CLOUDY    69  65  86 W7        30.00S
CENTERVILLE *    N/A     73  64  73 W7        30.03S
OTTUMWA        CLOUDY    69  63  81 NW7       30.00R
WASHINGTON *   CLOUDY    72  68  88 W8        29.98S
$$

ABBREVIATIONS USED IN REMARKS
   TC - TEMPERATURES IN CELSIUS
  WCI - WIND CHILL INDEX
   HX - HEAT INDEX
  VSB - VISIBILITY
$$





USA.gov is the U.S. government's official web portal to all federal, state and local government web resources and services.